DW1806 Weather Reports


Display with metric or nautical units.
time (UTC)temp
F
wind
direction
speed
MPH
gust
MPH
rain 1hr
in
rain 24hr
in
rain mn
in
humidity
%
barometer
mb
20260508063046 40 329 0.0 0.0 0.00 0.00 0.00 91 1010.3
20260508062541 40 329 0.0 0.0 0.00 0.00 0.00 91 1010.4
20260508062041 40 329 0.0 0.0 0.00 0.00 0.00 91 1010.4
20260508061543 40 329 0.0 0.0 0.00 0.00 0.00 91 1010.4
20260508061041 40 329 0.0 0.0 0.00 0.00 0.00 91 1010.4
20260508060544 40 329 0.0 0.0 0.00 0.00 0.00 91 1010.5
20260508060041 40 329 0.0 0.0 0.00 0.00 0.00 91 1010.5
20260508055540 40 329 0.0 0.0 0.00 0.00 0.00 91 1010.6
20260508055040 40 329 0.0 0.0 0.00 0.00 0.00 90 1010.4
20260508054540 39 329 0.0 0.0 0.00 0.00 0.00 90 1010.4
20260508054043 39 329 0.0 0.0 0.00 0.00 0.00 90 1010.6
20260508053539 39 329 0.0 0.0 0.00 0.00 0.00 90 1010.7
20260508053039 39 329 0.0 0.0 0.00 0.00 0.00 90 1010.8
20260508052539 39 329 0.0 0.0 0.00 0.00 0.00 90 1010.4
20260508052037 39 329 0.0 0.0 0.00 0.00 0.00 90 1010.6
20260508051537 39 329 0.0 0.0 0.00 0.00 0.00 90 1010.7
20260508051037 39 329 0.0 0.0 0.00 0.00 0.00 90 1010.7
20260508050537 39 329 0.0 0.0 0.00 0.00 0.00 90 1010.7
20260508050044 39 329 0.0 0.0 0.00 0.00 0.00 90 1010.7
20260508045535 39 329 0.0 0.0 0.00 0.00 0.00 89 1010.8
20260508045035 39 329 0.0 0.0 0.00 0.00 0.00 89 1010.9
20260508044534 40 329 0.0 0.0 0.00 0.00 0.00 89 1010.9
20260508044035 40 329 0.0 0.0 0.00 0.00 0.00 89 1010.9
20260508043533 40 329 0.0 0.0 0.00 0.00 0.00 89 1010.8
20260508043036 40 329 0.0 0.0 0.00 0.00 0.00 89 1010.8
20260508042532 40 329 0.0 0.0 0.00 0.00 0.00 89 1010.7
20260508042031 40 329 0.0 0.0 0.00 0.00 0.00 89 1010.8
20260508041531 40 329 0.0 0.0 0.00 0.00 0.00 89 1010.7
20260508041029 41 329 0.0 0.0 0.00 0.00 0.00 89 1010.8
20260508040529 41 329 0.0 0.0 0.00 0.00 0.00 89 1010.7
20260508040029 41 329 0.0 0.0 0.00 0.00 0.00 89 1010.7
20260508035528 41 329 0.0 0.0 0.00 0.00 0.08 88 1010.7
20260508035029 41 329 0.0 0.0 0.00 0.00 0.08 88 1010.8
20260508034528 41 329 0.0 0.0 0.00 0.00 0.08 88 1010.8
20260508034028 41 329 0.0 0.0 0.00 0.00 0.08 88 1010.8
20260508033527 41 329 0.0 0.0 0.00 0.00 0.08 88 1010.8
20260508033027 41 329 0.0 0.0 0.00 0.00 0.08 88 1010.8
20260508032528 42 329 0.0 0.0 0.00 0.00 0.08 88 1010.8
20260508032027 42 329 0.0 0.0 0.00 0.00 0.08 87 1010.7
20260508031528 42 329 0.0 0.0 0.00 0.00 0.08 87 1010.8
20260508031026 42 329 0.0 0.0 0.00 0.00 0.08 87 1010.6
20260508030527 42 329 0.0 0.0 0.00 0.00 0.08 87 1010.6
20260508030027 42 329 0.0 0.0 0.00 0.00 0.08 87 1010.7
20260508025526 42 329 0.0 0.0 0.00 0.00 0.08 87 1010.6
20260508025031 42 329 0.0 0.0 0.00 0.00 0.08 86 1010.6
20260508024529 43 329 0.0 0.0 0.00 0.00 0.08 86 1010.5
20260508024026 43 329 0.0 0.0 0.00 0.00 0.08 86 1010.5
20260508023526 43 329 0.0 0.0 0.00 0.00 0.08 86 1010.5
20260508023034 43 329 0.0 0.0 0.00 0.00 0.08 86 1010.5
20260508022526 43 329 0.0 0.0 0.00 0.00 0.08 86 1010.5
20260508022026 43 329 0.0 0.0 0.00 0.00 0.08 86 1010.6
20260508021527 43 329 0.0 0.0 0.00 0.00 0.08 86 1010.6
20260508021027 43 348 0.0 0.0 0.00 0.00 0.08 86 1010.5
20260508020525 43 337 0.0 0.0 0.00 0.00 0.08 86 1010.5
20260508020025 43 254 0.0 0.0 0.00 0.00 0.08 86 1010.7
20260508015525 44 284 0.0 0.0 0.00 0.00 0.08 86 1010.7
20260508015025 44 281 0.0 0.0 0.00 0.00 0.08 85 1010.7
20260508014531 44 267 0.0 0.0 0.00 0.00 0.07 85 1010.8
20260508014025 44 288 0.0 0.0 0.00 0.00 0.06 85 1010.6
20260508013526 44 279 0.0 0.0 0.00 0.00 0.06 84 1010.6
20260508013024 44 270 0.0 0.0 0.00 0.00 0.06 84 1010.6
20260508012525 44 292 0.0 0.0 0.00 0.00 0.06 83 1010.5
20260508012028 44 242 0.0 0.0 0.00 0.00 0.06 83 1010.5
20260508011530 44 257 0.0 0.0 0.00 0.00 0.04 82 1010.5
20260508011022 45 281 0.0 0.0 0.00 0.00 0.02 80 1010.5
20260508010524 45 254 0.0 0.0 0.00 0.00 0.01 80 1010.4
20260508010030 46 281 0.0 0.0 0.00 0.00 0.00 79 1010.3
20260508005532 46 298 0.0 0.0 0.00 0.00 0.00 78 1010.2
20260508005022 45 266 0.0 0.0 0.00 0.00 0.00 77 1010.1
20260508004522 45 298 0.0 0.0 0.00 0.00 0.00 77 1009.9
20260508004022 45 298 0.0 0.0 0.00 0.00 0.00 78 1009.9
20260508003522 45 298 0.0 0.0 0.00 0.00 0.00 78 1009.7
20260508003027 45 298 0.0 0.0 0.00 0.00 0.00 77 1009.6
20260508002522 45 298 0.0 0.0 0.00 0.00 0.00 77 1009.7
20260508002022 45 298 0.0 0.0 0.00 0.00 0.00 77 1009.7
20260508001521 45 301 0.0 0.0 0.00 0.00 0.00 76 1009.6
20260508001021 45 327 0.0 0.0 0.00 0.00 0.00 75 1009.7
20260508000523 46 326 0.0 0.0 0.00 0.00 0.00 74 1009.7
20260508000021 46 279 0.0 0.0 0.00 0.00 0.00 72 1009.7
20260507235521 47 304 0.0 0.0 0.00 0.00 0.00 70 1009.8
20260507235024 48 291 0.0 0.0 0.00 0.00 0.00 69 1009.5
20260507234520 48 281 0.0 0.0 0.00 0.00 0.00 67 1009.4
20260507234020 49 270 0.0 0.0 0.00 0.00 0.00 64 1009.4
20260507233521 50 279 0.0 0.0 0.00 0.00 0.00 59 1009.2
20260507233020 50 230 0.0 0.0 0.00 0.00 0.00 58 1009.2
20260507232520 50 226 0.0 0.0 0.00 0.00 0.00 59 1009.1
20260507232019 50 273 0.0 0.0 0.00 0.00 0.00 62 1009.1
20260507231519 51 292 0.0 0.0 0.00 0.00 0.00 63 1009.0
20260507231019 51 289 0.0 0.0 0.00 0.00 0.00 62 1009.0
20260507230523 51 302 0.0 0.0 0.00 0.00 0.00 62 1009.0
20260507230019 51 273 0.0 0.0 0.00 0.00 0.00 61 1009.0
20260507225518 51 265 0.0 0.0 0.00 0.00 0.00 61 1008.9
20260507225020 51 264 0.0 0.0 0.00 0.00 0.00 60 1008.9
20260507224519 51 272 0.0 0.0 0.00 0.00 0.00 60 1008.8
20260507224018 51 266 0.0 0.0 0.00 0.00 0.00 60 1009.0
20260507223518 52 263 0.0 0.0 0.00 0.00 0.00 59 1008.9
20260507223018 52 259 0.0 0.0 0.00 0.00 0.00 58 1008.9
20260507222518 52 286 0.0 0.0 0.00 0.00 0.00 57 1009.1
20260507222017 52 269 0.0 0.0 0.00 0.00 0.00 58 1009.1
20260507221517 52 261 0.0 0.0 0.00 0.00 0.00 57 1009.0
20260507221018 52 271 0.0 0.0 0.00 0.00 0.00 59 1008.9
20260507220515 52 245 0.0 0.0 0.00 0.00 0.00 59 1008.9
20260507220016 52 261 0.0 0.0 0.00 0.00 0.00 59 1009.0
20260507215516 52 261 0.0 0.0 0.00 0.00 0.00 58 1009.1
20260507215015 53 267 0.0 0.0 0.00 0.00 0.00 57 1009.1
20260507214515 53 278 0.0 0.0 0.00 0.00 0.00 57 1009.2
20260507214015 54 265 0.0 0.0 0.00 0.00 0.00 56 1009.2
20260507213517 53 228 0.0 0.0 0.00 0.00 0.00 58 1009.2
20260507213019 52 273 0.0 0.0 0.00 0.00 0.00 58 1009.1
20260507212515 52 303 0.0 0.0 0.00 0.00 0.00 59 1009.1
20260507212015 52 331 0.0 0.0 0.00 0.00 0.00 59 1009.1
20260507211515 51 309 0.0 0.0 0.00 0.00 0.00 59 1009.0
20260507211013 51 286 0.0 0.0 0.00 0.00 0.00 60 1009.0
20260507210516 51 311 0.0 0.0 0.00 0.00 0.00 59 1009.1
20260507210013 51 281 0.0 0.0 0.00 0.00 0.00 60 1009.1
20260507205513 50 275 0.0 0.0 0.00 0.00 0.00 59 1009.1
20260507205013 50 298 0.0 0.0 0.00 0.00 0.00 59 1009.2
20260507204512 50 285 0.0 0.0 0.00 0.00 0.00 59 1009.2
20260507204012 50 311 0.0 0.0 0.00 0.00 0.00 61 1009.2
20260507203516 50 311 0.0 0.0 0.00 0.00 0.00 61 1009.2
20260507203015 50 287 0.0 0.0 0.00 0.00 0.00 61 1009.2
20260507202512 51 323 0.0 0.0 0.00 0.00 0.00 60 1009.2
20260507202012 51 316 0.0 0.0 0.00 0.00 0.00 59 1009.2
20260507201512 51 321 0.0 0.0 0.00 0.00 0.00 60 1009.2
20260507201014 51 265 0.0 0.0 0.00 0.00 0.00 59 1009.2
20260507200511 52 285 0.0 0.0 0.00 0.00 0.00 57 1009.2
20260507200022 53 288 0.0 0.0 0.00 0.00 0.00 56 1009.2
20260507195510 53 311 0.0 0.0 0.00 0.00 0.00 55 1009.3
20260507195009 54 292 0.0 0.0 0.00 0.00 0.00 55 1009.4
20260507194509 54 273 0.0 0.0 0.00 0.00 0.00 53 1009.4
20260507194009 55 277 0.0 0.0 0.00 0.00 0.00 54 1009.5
20260507193508 55 327 0.0 0.0 0.00 0.00 0.00 54 1009.6
20260507193008 55 341 0.0 0.0 0.00 0.00 0.00 54 1009.6
20260507192508 54 326 0.0 0.0 0.00 0.00 0.00 55 1009.6
20260507192007 54 327 0.0 0.0 0.00 0.00 0.00 55 1009.7
20260507191507 53 338 0.0 0.0 0.00 0.00 0.00 56 1009.7
20260507191006 53 333 0.0 0.0 0.00 0.00 0.00 58 1009.7
20260507190506 51 323 0.0 0.0 0.00 0.00 0.00 60 1009.7
20260507190017 50 10 0.0 0.0 0.00 0.00 0.00 60 1009.9
20260507185508 50 267 0.0 0.0 0.00 0.00 0.00 59 1009.8
20260507185006 50 320 0.0 0.0 0.00 0.00 0.00 60 1009.9
20260507184506 49 311 0.0 0.0 0.00 0.00 0.00 61 1009.9
20260507184006 49 333 0.0 0.0 0.00 0.00 0.00 61 1010.0
20260507183505 49 335 0.0 0.0 0.00 0.00 0.00 61 1009.8
20260507183016 50 320 0.0 0.0 0.00 0.00 0.00 60 1009.9
20260507182505 50 355 0.0 0.0 0.00 0.00 0.00 61 1009.8
20260507182007 50 355 0.0 0.0 0.00 0.00 0.00 60 1009.8
20260507181506 51 343 0.0 0.0 0.00 0.00 0.00 60 1009.9
20260507181005 51 333 0.0 0.0 0.00 0.00 0.00 59 1009.8
20260507180505 51 338 0.0 0.0 0.00 0.00 0.00 58 1009.9
20260507180010 51 340 0.0 0.0 0.00 0.00 0.00 59 1009.9
20260507175506 51 327 0.0 0.0 0.00 0.00 0.00 59 1009.9
20260507175004 52 323 0.0 0.0 0.00 0.00 0.00 59 1009.8
20260507174508 52 323 0.0 0.0 0.00 0.00 0.00 57 1009.8
20260507174004 52 319 0.0 0.0 0.00 0.00 0.00 55 1009.9
20260507173510 53 349 0.0 0.0 0.00 0.00 0.00 54 1009.8
20260507173004 53 355 0.0 0.0 0.00 0.00 0.00 54 1009.7
20260507172503 53 317 0.0 0.0 0.00 0.00 0.00 55 1009.7
20260507172003 53 348 0.0 0.0 0.00 0.00 0.00 54 1009.8
20260507171503 53 336 0.0 0.0 0.00 0.00 0.00 53 1009.9
20260507171003 53 355 0.0 0.0 0.00 0.00 0.00 52 1009.8
20260507170503 53 302 0.0 0.0 0.00 0.00 0.00 54 1009.7
20260507170001 53 284 0.0 0.0 0.00 0.00 0.00 53 1010.0
20260507165501 53 305 0.0 0.0 0.00 0.00 0.00 51 1010.0
20260507165000 54 298 0.0 0.0 0.00 0.00 0.00 53 1010.0
20260507164600 54 320 0.0 0.0 0.00 0.00 0.00 52 1010.1
20260507164100 55 273 0.0 0.0 0.00 0.00 0.00 51 1010.1
20260507163603 54 298 0.0 0.0 0.00 0.00 0.00 54 1010.1
20260507163102 54 192 0.0 0.0 0.00 0.00 0.00 52 1010.2
20260507162558 54 188 0.0 0.0 0.00 0.00 0.00 50 1010.3
20260507162102 55 298 0.0 0.0 0.00 0.00 0.00 53 1010.4
20260507161604 54 196 0.0 0.0 0.00 0.00 0.00 54 1010.3
20260507161056 55 271 0.0 0.0 0.00 0.00 0.00 52 1010.4
20260507160556 55 323 0.0 0.0 0.00 0.00 0.00 51 1010.4
20260507160100 54 342 0.0 0.0 0.00 0.00 0.00 54 1010.5
20260507155553 53 261 0.0 0.0 0.00 0.00 0.00 54 1010.6
20260507155053 52 284 0.0 0.0 0.00 0.00 0.00 54 1010.6
20260507154553 52 255 0.0 0.0 0.00 0.00 0.00 53 1010.6
20260507154054 53 262 0.0 0.0 0.00 0.00 0.00 53 1010.6
20260507153554 54 232 0.0 0.0 0.00 0.00 0.00 55 1010.6
20260507153055 52 360 0.0 0.0 0.00 0.00 0.00 56 1010.8
20260507152551 51 261 0.0 0.0 0.00 0.00 0.00 55 1010.7
20260507152050 51 279 0.0 0.0 0.00 0.00 0.00 57 1010.8
20260507151550 51 236 0.0 0.0 0.00 0.00 0.00 57 1010.8
20260507151049 52 261 0.0 0.0 0.00 0.00 0.00 57 1010.8
20260507150549 51 345 0.0 0.0 0.00 0.00 0.00 58 1010.7
20260507150047 51 288 0.0 0.0 0.00 0.00 0.00 58 1010.8
20260507145546 50 222 0.0 0.0 0.00 0.00 0.00 61 1010.9
20260507145045 50 262 0.0 0.0 0.00 0.00 0.00 62 1010.9
20260507144549 50 264 0.0 0.0 0.00 0.00 0.00 62 1010.8
20260507144044 50 293 0.0 0.0 0.00 0.00 0.00 62 1010.9
20260507143543 50 196 0.0 0.0 0.00 0.00 0.00 62 1010.9
20260507143043 50 228 0.0 0.0 0.00 0.00 0.00 63 1010.9
20260507142543 50 261 0.0 0.0 0.00 0.00 0.00 64 1010.9
20260507142043 50 259 0.0 0.0 0.00 0.00 0.00 64 1010.9
20260507141542 50 162 0.0 0.0 0.00 0.00 0.00 66 1011.0
20260507141040 49 162 0.0 0.0 0.00 0.00 0.00 66 1011.0
20260507140539 49 162 0.0 0.0 0.00 0.00 0.00 67 1011.2
20260507140057 48 161 0.0 0.0 0.00 0.00 0.00 69 1011.2
20260507135538 48 163 0.0 0.0 0.00 0.00 0.00 67 1011.2
20260507135038 48 162 0.0 0.0 0.00 0.00 0.00 67 1011.2
20260507134538 48 162 0.0 0.0 0.00 0.00 0.00 67 1011.3
20260507134036 48 162 0.0 0.0 0.00 0.00 0.00 68 1011.2
20260507133537 47 162 0.0 0.0 0.00 0.00 0.00 69 1011.3
20260507133035 46 163 0.0 0.0 0.00 0.00 0.00 67 1011.4
20260507132534 46 163 0.0 0.0 0.00 0.00 0.00 67 1011.4
20260507132034 45 145 0.0 0.0 0.00 0.00 0.00 67 1011.5
20260507131535 45 148 0.0 0.0 0.00 0.00 0.00 68 1011.5
20260507131031 45 153 0.0 0.0 0.00 0.00 0.00 68 1011.5
20260507130534 44 82 0.0 0.0 0.00 0.00 0.00 75 1011.5
20260507130028 43 82 0.0 0.0 0.00 0.00 0.00 79 1011.5
20260507125532 43 82 0.0 0.0 0.00 0.00 0.00 81 1011.6
20260507125026 42 83 0.0 0.0 0.00 0.00 0.00 85 1011.7
20260507124527 42 83 0.0 0.0 0.00 0.00 0.00 87 1011.7
20260507124027 42 83 0.0 0.0 0.00 0.00 0.00 88 1011.7
20260507123526 41 40 0.0 0.0 0.00 0.00 0.00 90 1011.8
20260507123032 41 40 0.0 0.0 0.00 0.00 0.00 91 1011.6
20260507122528 41 40 0.0 0.0 0.00 0.00 0.00 92 1011.7
20260507122025 40 40 0.0 0.0 0.00 0.00 0.00 92 1011.8
20260507121536 40 40 0.0 0.0 0.00 0.00 0.00 92 1011.7
20260507121025 40 40 0.0 0.0 0.00 0.00 0.00 92 1011.7
20260507120524 41 39 0.0 0.0 0.00 0.00 0.00 93 1011.8
20260507120024 41 309 0.0 0.0 0.00 0.00 0.00 93 1011.9
20260507115524 41 304 0.0 0.0 0.00 0.00 0.00 93 1012.0
20260507115024 41 304 0.0 0.0 0.00 0.00 0.00 93 1011.9
20260507114524 41 304 0.0 0.0 0.00 0.00 0.00 93 1012.0
20260507114026 41 304 0.0 0.0 0.00 0.00 0.00 93 1012.0
20260507113524 41 304 0.0 0.0 0.00 0.00 0.00 93 1012.1
20260507113033 41 304 0.0 0.0 0.00 0.00 0.00 93 1012.1
20260507112523 41 304 0.0 0.0 0.00 0.00 0.00 93 1012.1
20260507112023 41 304 0.0 0.0 0.00 0.00 0.00 94 1012.0
20260507111524 41 305 0.0 0.0 0.00 0.00 0.00 93 1011.9
20260507111022 41 305 0.0 0.0 0.00 0.00 0.00 93 1011.8
20260507110521 40 305 0.0 0.0 0.00 0.00 0.00 93 1011.4
20260507110027 40 305 0.0 0.0 0.00 0.00 0.00 93 1011.4
20260507105520 40 305 0.0 0.0 0.00 0.00 0.00 93 1011.3
20260507105021 40 305 0.0 0.0 0.00 0.00 0.00 93 1011.2
20260507104521 40 305 0.0 0.0 0.00 0.00 0.00 93 1011.1
20260507104024 39 305 0.0 0.0 0.00 0.00 0.00 92 1011.2
20260507103521 39 305 0.0 0.0 0.00 0.00 0.00 92 1011.1
20260507103020 39 305 0.0 0.0 0.00 0.00 0.00 92 1011.1
20260507102521 39 305 0.0 0.0 0.00 0.00 0.00 92 1011.0
20260507102021 39 305 0.0 0.0 0.00 0.00 0.00 92 1011.0
20260507101527 39 305 0.0 0.0 0.00 0.00 0.00 92 1011.0
20260507101020 39 305 0.0 0.0 0.00 0.00 0.00 92 1011.0
20260507100519 38 305 0.0 0.0 0.00 0.00 0.00 92 1011.0
20260507100026 38 305 0.0 0.0 0.00 0.00 0.00 92 1011.1
20260507095519 38 305 0.0 0.0 0.00 0.00 0.00 92 1011.0
20260507095019 38 305 0.0 0.0 0.00 0.00 0.00 92 1011.1
20260507094522 38 305 0.0 0.0 0.00 0.00 0.00 92 1011.0
20260507094018 38 305 0.0 0.0 0.00 0.00 0.00 92 1011.1
20260507093519 38 305 0.0 0.0 0.00 0.00 0.00 91 1010.9
20260507093033 38 305 0.0 0.0 0.00 0.00 0.00 91 1011.0
20260507092519 38 305 0.0 0.0 0.00 0.00 0.00 91 1011.0
20260507092017 38 305 0.0 0.0 0.00 0.00 0.00 91 1011.0
20260507091517 38 305 0.0 0.0 0.00 0.00 0.00 91 1010.9
20260507091017 38 305 0.0 0.0 0.00 0.00 0.00 91 1010.8
20260507090517 38 305 0.0 0.0 0.00 0.00 0.00 91 1011.0
20260507090028 38 305 0.0 0.0 0.00 0.00 0.00 91 1011.0
20260507085516 38 305 0.0 0.0 0.00 0.00 0.00 91 1011.0
20260507085017 38 305 0.0 0.0 0.00 0.00 0.00 91 1011.0
20260507084516 38 305 0.0 0.0 0.00 0.00 0.00 90 1010.9
20260507084017 38 305 0.0 0.0 0.00 0.00 0.00 91 1010.8
20260507083515 38 305 0.0 0.0 0.00 0.00 0.00 91 1010.8
20260507083031 38 305 0.0 0.0 0.00 0.00 0.00 91 1010.9
20260507082512 39 305 0.0 0.0 0.00 0.00 0.00 90 1010.9
20260507082013 39 305 0.0 0.0 0.00 0.00 0.00 91 1010.9
20260507081513 39 305 0.0 0.0 0.00 0.00 0.00 91 1010.9
20260507081011 39 305 0.0 0.0 0.00 0.00 0.00 91 1010.7
20260507080511 39 305 0.0 0.0 0.00 0.00 0.00 91 1010.8
20260507080011 39 305 0.0 0.0 0.00 0.00 0.00 91 1010.8
20260507075511 39 305 0.0 0.0 0.00 0.00 0.00 91 1010.8
20260507075011 39 305 0.0 0.0 0.00 0.00 0.00 91 1010.8
20260507074524 39 305 0.0 0.0 0.00 0.00 0.00 91 1010.8
20260507074010 39 305 0.0 0.0 0.00 0.00 0.00 90 1010.8
20260507073512 39 305 0.0 0.0 0.00 0.00 0.00 90 1010.8
20260507073009 39 305 0.0 0.0 0.00 0.00 0.00 90 1010.8
20260507072509 39 305 0.0 0.0 0.00 0.00 0.00 90 1010.7
20260507072008 39 305 0.0 0.0 0.00 0.00 0.00 90 1010.7
20260507071508 40 305 0.0 0.0 0.00 0.00 0.00 90 1010.9
20260507071008 40 305 0.0 0.0 0.00 0.00 0.00 90 1010.9
20260507070507 40 305 0.0 0.0 0.00 0.00 0.00 90 1010.8
20260507070011 40 305 0.0 0.0 0.00 0.00 0.00 89 1010.8
20260507065507 40 305 0.0 0.0 0.00 0.00 0.00 90 1010.8
20260507065005 41 305 0.0 0.0 0.00 0.00 0.00 89 1010.8
20260507064505 41 305 0.0 0.0 0.00 0.00 0.00 89 1010.9
20260507064001 41 305 0.0 0.0 0.00 0.00 0.00 89 1011.2
20260507063500 41 305 0.0 0.0 0.00 0.00 0.00 89 1011.2